NW Arkansas Airport, AR

2:08 PM CDT on April 26, 2017 (GMT -0500)
Northwest Arkansas Regional

Weather History for KXNA - March, 2014

Change the Weather History Date:

Thursday, March 27, 2014

  Actual Average (KVBT) Record (KVBT)
Temperature  
Mean Temperature 57 °F -  
Max Temperature 66 °F 63 °F 80 °F (1956)
Min Temperature 48 °F 38 °F 15 °F (1955)
Degree Days  
Heating Degree Days 8    
Growing Degree Days 7 (Base 50)    
Moisture  
Dew Point 47 °F    
Average Humidity 72    
Maximum Humidity 83    
Minimum Humidity 55    
Precipitation  
Precipitation 0.00 in - - ()
Sea Level Pressure  
Sea Level Pressure 29.70 in    
Wind  
Wind Speed 19 mph (SSW)    
Max Wind Speed 26 mph    
Max Gust Speed 39 mph    
Visibility 10 miles    
Events Thunderstorm    
Averages and records for this station are not official NWS values.
T = Trace of Precipitation, MM = Missing Value Source: NWS Daily Summary

Daily Weather History Graph

Daily Weather History Graph

Search for Another Location

Airport or City:

Trip Planner

Search our weather history database for the weather conditions in past years. The results will help you decide how hot, cold, wet, or windy it might be!

Date:

Astronomy

Mar. 27, 2014 Rise Set
Actual Time 7:10 AM CDT 7:35 PM CDT
Civil Twilight 6:44 AM CDT 8:00 PM CDT
Nautical Twilight 6:14 AM CDT 8:31 PM CDT
Astronomical Twilight 5:43 AM CDT 9:02 PM CDT
Moon 4:56 AM CDT (3/27) 4:28 PM CDT (3/27)
Length of Visible Light 13h 16m
Length of Day
12h 24m
Waning Crescent, 13% of the Moon is Illuminated
Mar 27
Waning Crescent
Mar 30
New
Apr 7
First Quarter
Apr 15
Full
Apr 22
Last Quarter

Hourly Weather History & Observations

Time (CDT) Temp. Dew Point Humidity Pressure Visibility Wind Dir Wind Speed Gust Speed Precip Events Conditions
12:53 AM 48.0 °F 36.0 °F 63% 29.83 in 10.0 mi South 16.1 mph - N/A   Overcast
1:53 AM 50.0 °F 37.0 °F 61% 29.80 in 10.0 mi South 21.9 mph 29.9 mph N/A   Overcast
2:53 AM 50.0 °F 37.9 °F 63% 29.77 in 10.0 mi South 17.3 mph 28.8 mph N/A   Overcast
3:53 AM 50.0 °F 37.9 °F 63% 29.75 in 10.0 mi South 19.6 mph 29.9 mph N/A   Overcast
4:14 AM 50.0 °F 39.2 °F 66% 29.75 in 10.0 mi South 24.2 mph 34.5 mph N/A   Overcast
4:53 AM 50.0 °F 39.0 °F 66% 29.75 in 10.0 mi South 19.6 mph 28.8 mph N/A   Overcast
5:53 AM 50.0 °F 41.0 °F 71% 29.73 in 10.0 mi South 25.3 mph 33.4 mph N/A   Overcast
6:53 AM 51.1 °F 43.0 °F 74% 29.73 in 10.0 mi South 21.9 mph 32.2 mph N/A   Overcast
7:53 AM 51.1 °F 45.0 °F 80% 29.72 in 10.0 mi South 20.7 mph 35.7 mph N/A   Overcast
8:53 AM 52.0 °F 46.9 °F 83% 29.71 in 10.0 mi SSW 19.6 mph 34.5 mph N/A   Overcast
9:03 AM 51.8 °F 46.4 °F 82% 29.71 in 10.0 mi South 25.3 mph 33.4 mph N/A   Overcast
9:53 AM 53.1 °F 46.9 °F 80% 29.72 in 10.0 mi SSW 18.4 mph 31.1 mph N/A   Overcast
10:53 AM 54.0 °F 48.9 °F 83% 29.70 in 10.0 mi South 20.7 mph 29.9 mph N/A   Overcast
11:31 AM 55.4 °F 50.0 °F 82% 29.69 in 10.0 mi South 26.5 mph 36.8 mph N/A   Overcast
11:53 AM 57.0 °F 50.0 °F 77% 29.67 in 10.0 mi South 25.3 mph 35.7 mph N/A   Overcast
12:53 PM 57.9 °F 51.1 °F 78% 29.65 in 10.0 mi South 24.2 mph 39.1 mph N/A   Overcast
1:53 PM 60.1 °F 52.0 °F 75% 29.62 in 10.0 mi South 20.7 mph 38.0 mph N/A   Overcast
2:53 PM 62.1 °F 53.1 °F 72% 29.62 in 10.0 mi SSW 25.3 mph 38.0 mph N/A   Overcast
3:53 PM 66.0 °F 54.0 °F 65% 29.60 in 10.0 mi South 20.7 mph 34.5 mph N/A   Scattered Clouds
4:53 PM 64.9 °F 54.0 °F 68% 29.59 in 10.0 mi South 20.7 mph 31.1 mph N/A   Scattered Clouds
5:53 PM 66.0 °F 55.0 °F 68% 29.59 in 10.0 mi South 19.6 mph 26.5 mph N/A   Clear
6:53 PM 64.9 °F 55.0 °F 70% 29.60 in 10.0 mi South 20.7 mph 27.6 mph N/A   Mostly Cloudy
7:53 PM 63.0 °F 55.9 °F 78% 29.62 in 10.0 mi South 13.8 mph 23.0 mph N/A   Partly Cloudy
8:53 PM 62.1 °F 55.9 °F 80% 29.67 in 10.0 mi SSW 9.2 mph - N/A   Scattered Clouds
9:15 PM 62.6 °F 57.2 °F 82% 29.69 in 10.0 mi WSW 16.1 mph 24.2 mph N/A Thunderstorm Mostly Cloudy
9:53 PM 62.1 °F 55.0 °F 78% 29.71 in 10.0 mi West 9.2 mph - N/A Thunderstorm Clear
10:09 PM 62.6 °F 46.4 °F 55% 29.74 in 10.0 mi NW 10.4 mph - N/A   Clear
10:53 PM 57.9 °F 42.1 °F 56% 29.76 in 10.0 mi NNW 11.5 mph - N/A   Mostly Cloudy
11:53 PM 53.1 °F 37.9 °F 57% 29.83 in 10.0 mi NNW 6.9 mph - N/A   Mostly Cloudy